Weather History for Saint Simons Island, GA

Change the Weather History Date:

Friday, February 22, 2013

  Actual Average Record
Temperature  
Mean Temperature 65 °F 56 °F  
Max Temperature 70 °F 64 °F 81 °F (2001)
Min Temperature 60 °F 47 °F 29 °F (1970)
Degree Days  
Heating Degree Days 0 10  
Month to date heating degree days 219 248  
Since 1 July heating degree days 894 1199  
Cooling Degree Days 0 0  
Month to date cooling degree days 6 0  
Year to date cooling degree days 18 3  
Growing Degree Days 14 (Base 50)    
Moisture  
Dew Point 61 °F    
Average Humidity 86    
Maximum Humidity 93    
Minimum Humidity 78    
Precipitation  
Precipitation 0.15 in 0.13 in 2.45 in (1987)
Month to date precipitation 0.30 2.69  
Year to date precipitation 0.64 5.91  
Snow  
Snow 0.00 in - 0.00 in ()
Month to date snowfall 0.0  
Since 1 July snowfall 0.0  
Snow Depth 0.00 in    
Sea Level Pressure  
Sea Level Pressure 30.07 in    
Wind  
Wind Speed 6 mph (ESE)    
Max Wind Speed 14 mph    
Max Gust Speed 17 mph    
Visibility 10 miles    
Events Rain    
T = Trace of Precipitation, MM = Missing Value Source: NWS Daily Summary

Daily Weather History Graph

Daily Weather History Graph

Search for Another Location

Airport:

Trip Planner

Search our weather history database for the weather conditions in past years. The results will help you decide how hot, cold, wet, or windy it might be!

Date:

Astronomy

Feb. 22, 2013 Rise Set
Actual Time 6:59 AM EST 6:18 PM EST
Civil Twilight 6:35 AM EST 6:43 PM EST
Nautical Twilight 6:06 AM EST 7:11 PM EST
Astronomical Twilight 5:38 AM EST 7:39 PM EST
Moon 3:36 PM EST (2/22) 4:35 AM EST (2/22)
Length of Visible Light 12h 08m
Length of Day
11h 19m
Waxing Gibbous, 90% of the Moon is Illuminated
Feb 22
Waxing Gibbous
Feb 25
Full
Mar 4
Last Quarter
Mar 11
New
Mar 19
First Quarter

Hourly Weather History & Observations

Time (EST) Temp. Dew Point Humidity Pressure Visibility Wind Dir Wind Speed Gust Speed Precip Events Conditions
12:53 AM 60.1 °F 54.0 °F 80% 30.09 in 10.0 mi ENE 6.9 mph - N/A   Overcast
1:53 AM 60.1 °F 55.0 °F 83% 30.08 in 10.0 mi ENE 5.8 mph - N/A   Overcast
2:37 AM 60.8 °F 55.4 °F 82% 30.07 in 10.0 mi ENE 5.8 mph - N/A   Overcast
2:53 AM 61.0 °F 57.0 °F 87% 30.06 in 10.0 mi East 4.6 mph - N/A   Overcast
3:53 AM 62.1 °F 57.9 °F 86% 30.05 in 10.0 mi ENE 8.1 mph - N/A   Mostly Cloudy
4:53 AM 63.0 °F 59.0 °F 87% 30.05 in 10.0 mi East 12.7 mph - N/A   Overcast
5:53 AM 63.0 °F 60.1 °F 90% 30.06 in 10.0 mi East 6.9 mph - N/A   Overcast
6:53 AM 63.0 °F 61.0 °F 93% 30.07 in 10.0 mi ESE 5.8 mph - N/A   Overcast
7:35 AM 64.4 °F 60.8 °F 88% 30.08 in 10.0 mi SE 5.8 mph - N/A   Overcast
7:53 AM 64.9 °F 62.1 °F 90% 30.09 in 10.0 mi Calm Calm - N/A   Overcast
8:39 AM 64.4 °F 62.6 °F 94% 30.09 in 10.0 mi North - - N/A   Scattered Clouds
8:53 AM 66.0 °F 63.0 °F 90% 30.09 in 10.0 mi SSE 8.1 mph - N/A   Partly Cloudy
9:14 AM 66.2 °F 62.6 °F 88% 30.09 in 10.0 mi SSE 5.8 mph - N/A   Scattered Clouds
9:53 AM 66.9 °F 64.0 °F 90% 30.09 in 10.0 mi SSE 8.1 mph - N/A   Mostly Cloudy
10:53 AM 64.9 °F 62.1 °F 90% 30.09 in 10.0 mi South 8.1 mph - N/A   Mostly Cloudy
11:05 AM 64.4 °F 62.6 °F 94% 30.09 in 10.0 mi South 5.8 mph - N/A   Scattered Clouds
11:53 AM 68.0 °F 63.0 °F 84% 30.09 in 10.0 mi SSE 5.8 mph - N/A   Mostly Cloudy
12:53 PM 68.0 °F 63.0 °F 84% 30.08 in 10.0 mi SE 6.9 mph - N/A   Partly Cloudy
1:53 PM 66.0 °F 62.1 °F 87% 30.07 in 10.0 mi East 4.6 mph - N/A   Scattered Clouds
2:53 PM 64.9 °F 62.1 °F 90% 30.06 in 10.0 mi ENE 4.6 mph - N/A   Overcast
3:53 PM 64.0 °F 62.1 °F 93% 30.05 in 10.0 mi ESE 5.8 mph - N/A   Overcast
4:53 PM 64.9 °F 63.0 °F 93% 30.03 in 10.0 mi South 6.9 mph - N/A   Mostly Cloudy
5:53 PM 66.0 °F 64.0 °F 93% 30.02 in 10.0 mi South 10.4 mph 17.3 mph N/A   Overcast
6:53 PM 66.0 °F 64.0 °F 93% 30.06 in 10.0 mi West 10.4 mph - N/A   Overcast
7:53 PM 66.0 °F 64.0 °F 93% 30.07 in 10.0 mi SW 9.2 mph - 0.00 in Rain Light Rain
8:53 PM 64.9 °F 63.0 °F 93% 30.07 in 9.0 mi SW 5.8 mph - 0.02 in Rain Light Rain
9:53 PM 62.1 °F 61.0 °F 96% 30.07 in 10.0 mi Calm Calm - 0.01 in Rain Light Rain
10:53 PM 62.1 °F 61.0 °F 96% 30.05 in 9.0 mi ENE 4.6 mph - 0.08 in Rain Light Rain
11:05 PM 62.6 °F 60.8 °F 94% 30.04 in 10.0 mi ENE 3.5 mph - 0.00 in Rain Light Rain
11:53 PM 63.0 °F 61.0 °F 93% 30.02 in 9.0 mi Calm Calm - 0.03 in Rain Light Rain